Theta_e
312 308 306 308 310 312 312 311 311 309 310 310 309 309 309 308 309 308 310 311 311 310 308 306 306 303 299 299 300 304 304 307 307 310 311 311 311 313 310 309 307 305 307 307
310 310 309 308 310 311 311 311 309 308 309 309 308 308 308 307 306 307 308 310 311 309 307 306 306 301 298 299 301 304 306 307 308 310 311 311 313 313 312 309 307 306 307 308
310 311 310 311 310 311 310 308 307 309 307 307 305 308 306 308 309 309 307 308 309 310 307 306 305 299 298 299 302 305 307 307 309 311 311 312 312 313 314 310 307 307 308 309
309 309 310 309 310 308 310 309 309 309 307 307 305 310 304 306 307 309 308 309 310 308 307 306 303 298 298 300 304 307 308 308 310 310 310 312 312 314 313 312 311 309 310 315
310 309 309 309 309 307 308 308 308 309 308 309 307 305 307 305 308 309 308 309 309 308 307 306 300 298 299 301 305 308 309 309 310 311 311 312 312 315 314 314 313 312 313 317
308 308 308 308 307 307 306 308 307 307 307 309 304 306 309 303 308 306 307 309 308 308 306 304 299 298 300 302 307 309 310 310 311 312 311 312 312 314 314 315 313 315 315 318
309 308 307 307 307 307 308 306 308 309 309 312 308 308 311 307 308 307 306 309 309 307 305 302 299 298 301 303 308 309 310 310 311 312 312 313 313 314 314 315 314 316 317 318
308 309 307 306 308 308 306 306 309 311 311 310 307 310 309 305 306 307 309 309 309 306 304 300 298 298 302 304 307 309 309 311 311 311 311 313 314 315 315 315 316 317 317 318
308 310 306 306 306 306 307 308 306 306 299 306 306 304 304 304 307 306 306 307 307 306 303 300 299 298 302 304 306 308 308 310 310 311 312 313 315 315 314 316 317 315 315 316
309 310 307 306 306 306 306 304 306 304 305 307 307 307 307 308 307 305 303 304 306 305 303 301 299 298 302 304 306 308 309 310 310 310 311 312 314 315 314 316 315 315 317 316
307 309 308 307 307 307 306 306 306 304 306 309 308 312 303 305 305 305 303 306 306 305 304 302 299 298 301 304 306 307 308 310 310 310 311 312 312 313 315 315 315 316 316 317
308 308 308 308 305 304 305 306 305 308 308 305 307 308 304 303 305 303 305 307 307 306 305 302 300 298 300 303 306 306 308 309 310 311 311 311 311 312 313 315 315 315 315 315
306 303 305 310 306 302 306 304 305 303 304 306 308 310 303 303 303 306 305 306 308 306 305 302 300 299 298 302 305 306 307 309 309 310 310 311 311 311 312 312 312 313 313 313
306 304 307 316 311 304 306 305 303 305 305 306 306 306 307 305 303 304 306 306 307 307 306 304 301 300 298 301 303 306 307 307 307 307 308 309 309 310 310 310 309 310 310 310
306 305 304 305 304 304 305 305 304 305 307 308 310 308 310 307 304 304 308 307 307 307 307 306 303 301 299 299 302 306 307 307 307 307 307 306 306 306 306 307 305 305 305 305
305 304 301 302 303 303 303 303 304 305 306 305 306 307 307 306 307 305 306 306 307 307 307 307 305 302 300 299 301 302 307 307 307 307 307 305 304 303 303 302 301 299 298 297
305 301 307 316 302 299 307 302 304 304 303 307 307 309 308 307 305 307 308 307 306 308 308 308 307 305 303 302 299 302 303 307 307 306 305 303 302 300 298 298 297 296 296 296
305 304 307 309 302 316 312 303 304 306 308 305 305 307 307 306 307 307 307 308 308 309 308 307 308 306 304 303 300 300 302 302 301 304 302 300 298 298 297 296 295 295 295 295
307 307 308 310 301 307 310 303 303 305 308 305 306 306 307 306 306 306 308 308 307 307 308 310 309 308 307 304 302 298 300 301 300 300 300 298 297 297 296 296 295 295 295 295
305 308 312 302 306 308 308 303 301 304 311 305 305 306 305 304 304 303 307 307 307 307 307 308 309 308 307 305 303 299 298 300 301 299 298 297 297 297 297 296 296 295 294 294
307 308 311 306 303 302 302 299 301 309 312 303 305 305 304 302 304 306 305 305 306 306 307 307 307 307 307 306 304 301 298 298 300 300 298 297 297 297 296 296 296 295 295 295
308 309 310 306 310 311 301 299 305 306 303 303 304 305 305 305 305 305 306 306 305 306 306 306 307 308 306 305 304 302 301 300 298 299 298 297 297 296 296 295 295 295 295 295
309 308 308 309 308 304 301 303 303 306 305 302 304 304 303 304 305 306 306 306 307 304 305 305 305 306 306 306 305 304 303 301 298 298 298 297 296 296 295 295 295 295 295 295
302 301 304 306 304 302 305 306 306 306 306 304 306 305 304 305 306 306 306 307 306 306 303 304 305 305 305 306 305 305 303 303 300 297 298 297 296 296 295 295 294 295 295 295
302 301 302 301 301 301 304 306 308 306 308 307 307 306 307 306 307 306 306 307 306 306 305 303 304 304 305 305 305 305 304 302 301 298 297 297 296 296 296 295 295 295 295 295
299 301 306 308 305 305 307 309 309 308 310 308 307 307 306 306 306 305 306 306 306 306 304 304 304 303 304 305 304 304 304 303 301 299 297 297 296 296 296 295 295 295 294 295
Wind_Speed
2 3 5 9 7 1 2 3 4 4 0 3 7 16 20 17 21 23 29 25 19 16 14 13 13 16 18 21 26 28 33 33 25 19 23 23 24 24 20 15 12 11 10 18
3 7 4 3 4 4 3 1 4 4 2 1 6 20 19 5 8 20 23 28 24 15 14 12 12 15 17 21 25 29 32 33 23 19 21 24 24 22 18 15 7 7 7 17
6 1 5 4 3 4 2 4 3 3 5 1 8 9 5 2 4 5 11 15 19 16 14 10 11 13 16 21 25 29 32 30 19 18 20 22 23 23 20 15 7 3 5 20
5 2 5 3 4 5 3 3 3 2 5 3 4 5 6 4 7 2 5 10 14 14 13 9 9 11 15 20 23 27 29 25 15 19 20 22 22 22 14 11 7 2 10 22
5 6 4 3 4 5 3 3 2 2 2 3 3 3 8 4 4 3 5 12 14 14 10 7 8 9 13 18 22 25 25 20 15 17 20 19 17 14 11 9 10 12 17 16
2 1 4 4 3 1 6 4 5 4 2 2 2 4 6 3 3 1 2 15 17 15 11 7 6 7 10 15 19 24 22 18 17 18 21 17 13 12 13 12 15 14 18 10
1 3 1 4 4 4 2 4 2 4 2 4 3 2 11 5 5 4 4 18 19 15 12 7 4 5 8 13 17 23 24 15 17 18 20 18 13 13 15 14 14 12 11 13
7 4 8 5 4 5 5 4 4 5 2 4 3 6 6 5 4 7 7 12 17 16 12 8 4 3 5 10 12 16 23 20 16 15 17 15 12 11 18 17 16 18 16 12
5 2 2 2 2 3 4 4 1 6 2 3 3 7 8 4 2 1 5 13 18 17 13 9 5 3 3 6 9 13 17 18 17 17 15 15 12 10 17 20 13 15 16 12
5 4 1 2 3 3 3 4 3 2 2 4 5 5 6 3 7 6 6 16 20 18 16 12 7 4 2 4 8 10 12 17 20 16 11 11 12 11 12 21 20 18 19 16
4 4 0 2 6 8 3 3 1 2 3 4 1 6 6 6 6 10 9 22 22 21 18 14 10 6 5 2 7 6 8 10 17 19 17 13 10 11 9 15 19 16 16 18
5 4 4 4 0 2 3 6 6 4 5 3 1 7 3 5 4 8 15 22 21 20 17 16 12 9 8 5 7 8 8 7 12 17 18 19 17 17 16 14 15 17 22 25
9 2 3 3 2 2 5 5 4 3 2 6 5 5 2 4 5 7 11 19 23 22 20 20 18 14 11 9 8 9 9 10 11 12 13 16 20 24 26 26 27 27 27 30
7 4 6 8 4 5 5 6 7 5 3 3 7 8 7 5 7 6 9 12 20 25 25 24 22 18 15 13 12 11 12 11 12 13 14 17 19 22 25 29 29 29 29 27
4 5 5 4 4 4 4 5 10 12 15 9 6 15 22 11 9 14 14 12 17 25 29 30 28 24 21 19 18 17 17 14 14 15 13 16 19 21 22 23 24 24 23 25
3 2 3 3 3 6 5 8 10 16 15 13 13 27 13 15 10 12 16 18 22 27 32 33 31 28 26 24 23 22 18 20 19 16 12 13 15 17 18 19 20 22 22 23
7 6 3 4 3 2 9 14 20 10 8 15 13 29 3 4 8 18 24 25 25 30 33 36 36 35 31 29 27 28 25 23 21 16 16 16 16 15 16 17 18 19 21 22
6 6 2 3 1 6 2 3 8 18 18 18 15 24 15 11 14 17 25 28 27 28 31 34 38 38 35 32 31 30 30 27 25 23 22 22 20 19 18 18 18 18 20 19
9 5 4 4 4 8 7 5 8 9 9 21 23 26 25 16 17 27 11 14 23 32 34 31 30 37 38 37 35 34 35 32 29 28 27 26 24 23 22 21 19 18 18 20
8 7 5 3 5 9 5 1 5 5 8 10 20 17 7 4 0 4 11 11 12 11 18 25 29 33 42 42 40 39 39 38 36 32 31 28 27 26 26 25 24 22 20 19
5 5 11 5 4 8 8 6 9 6 6 6 18 17 12 5 6 13 17 17 15 15 12 13 21 29 35 43 44 45 43 44 39 35 34 33 30 29 27 27 27 26 25 24
11 9 5 4 6 13 9 7 9 6 4 11 13 15 15 6 10 13 15 18 16 13 12 13 17 24 30 38 47 48 48 41 41 40 38 37 34 33 32 31 30 29 29 28
7 6 7 12 8 2 19 3 17 4 6 10 12 10 8 10 17 20 25 22 20 17 16 15 16 22 27 31 44 51 48 44 41 42 43 41 39 37 36 35 35 34 33 32
3 2 3 4 8 9 16 24 22 18 17 7 8 10 13 19 21 24 24 24 22 19 17 14 15 20 27 30 36 47 48 46 44 44 44 45 44 42 40 39 38 38 38 37
4 9 7 4 6 5 9 26 26 16 20 27 22 19 19 16 19 21 20 19 20 18 17 16 16 18 23 28 32 39 47 49 47 45 46 47 47 46 45 44 43 42 41 39
5 6 7 10 8 5 10 15 20 12 21 18 14 15 13 17 16 16 15 16 17 16 14 15 17 18 20 23 29 34 42 48 49 48 47 49 50 50 48 47 46 45 43 41
Wind_Direction
94 85 216 217 204 176 154 220 254 271 171 260 244 277 276 261 242 235 237 235 237 242 237 254 286 308 324 332 336 343 345 347 350 349 340 342 340 341 338 318 288 261 239 214
53 234 211 203 183 219 228 220 270 280 299 254 321 288 286 260 241 239 231 235 233 227 227 249 287 308 330 340 341 348 346 348 349 344 345 340 343 342 337 337 300 236 219 191
175 215 134 141 156 172 227 194 228 245 317 239 313 292 334 291 297 295 233 238 224 219 223 245 284 313 337 344 349 353 348 351 351 348 342 348 355 356 8 9 15 238 186 175
234 232 162 166 200 153 247 185 150 55 28 273 8 279 305 300 305 274 177 177 188 201 215 244 289 320 342 352 356 358 354 356 357 353 351 358 359 6 6 26 43 74 155 155
235 167 160 171 204 174 228 124 93 82 72 337 355 67 271 346 322 248 190 187 195 201 214 245 291 330 348 358 6 0 2 5 6 1 358 5 10 32 27 50 60 106 137 157
250 184 170 191 71 57 144 77 44 51 59 348 243 115 285 241 217 304 193 196 200 207 211 236 282 333 352 9 18 4 17 11 15 14 10 12 9 52 58 70 106 119 149 137
117 207 181 148 96 24 91 89 331 345 10 227 147 89 247 259 239 222 209 205 203 203 209 228 271 325 358 19 31 20 28 19 14 4 21 33 38 72 77 88 106 118 139 142
165 251 177 179 176 175 181 171 167 209 215 284 89 235 249 200 271 245 244 210 195 194 207 221 255 318 2 27 41 29 19 24 24 19 25 45 54 86 95 94 105 99 101 117
157 216 100 82 123 137 186 199 165 106 41 39 231 281 293 228 228 140 171 180 188 192 205 214 237 274 340 26 43 44 24 12 28 31 36 54 71 76 107 108 103 110 109 96
204 103 327 142 125 66 157 164 85 352 138 257 279 275 244 264 217 215 196 203 196 196 200 207 222 234 257 40 47 63 39 24 34 34 33 46 80 88 103 121 124 135 134 142
154 120 299 150 203 172 141 208 132 135 163 180 277 265 210 221 198 208 213 213 205 202 204 203 205 214 228 112 71 68 59 47 55 54 53 66 86 98 105 120 122 124 134 135
171 117 163 215 126 139 170 195 173 147 215 243 211 274 176 215 219 216 231 219 214 212 211 208 203 205 222 174 113 94 86 78 81 75 67 68 83 92 101 102 110 121 127 128
175 216 82 18 14 356 202 194 175 115 91 207 151 258 4 286 290 262 237 211 210 209 209 211 207 203 214 194 154 128 123 110 97 100 93 89 90 96 98 100 105 109 115 118
130 151 167 190 167 131 186 189 181 160 150 184 230 303 270 270 254 257 242 217 209 213 210 213 213 204 207 203 174 144 149 134 117 112 115 114 112 109 112 111 114 116 118 118
151 187 160 202 139 151 181 171 186 204 214 197 232 225 252 242 235 239 238 221 212 215 214 215 213 207 203 205 191 166 163 155 144 136 132 128 125 125 123 121 120 119 123 125
172 176 109 315 196 216 235 205 198 222 236 253 269 277 260 254 248 261 256 234 226 227 224 222 217 211 206 205 204 184 174 171 165 159 158 152 144 139 137 133 132 133 133 132
151 135 121 230 48 46 285 208 209 204 205 212 222 243 273 232 233 251 267 261 249 254 239 228 222 216 209 206 206 199 188 183 181 184 179 173 165 158 151 147 146 146 143 143
139 119 127 149 126 233 243 154 210 213 236 213 247 259 245 261 281 291 275 266 261 260 253 243 232 222 215 210 207 208 200 199 199 197 190 183 178 171 170 166 165 162 157 154
166 136 160 176 208 313 277 196 170 169 259 212 225 248 262 280 303 295 333 291 279 269 258 256 249 230 220 212 209 209 208 205 203 198 195 192 187 182 180 178 178 177 173 169
159 163 191 144 180 210 247 128 165 135 278 199 206 235 248 127 229 264 348 341 330 303 263 252 250 238 225 216 211 210 211 210 208 204 198 197 195 192 189 189 185 186 186 186
168 173 198 171 221 282 242 152 155 126 245 165 184 205 174 181 229 309 329 331 306 300 301 264 241 244 235 221 215 212 213 215 212 208 205 203 202 201 199 197 195 193 193 194
175 168 178 147 201 256 150 104 179 203 134 157 158 170 178 230 303 302 332 340 329 316 302 276 250 240 235 225 219 217 217 217 215 211 210 209 208 206 206 205 203 201 201 201
204 195 178 190 207 211 195 277 202 168 171 171 171 187 218 295 308 306 307 312 319 320 305 292 260 242 233 230 222 221 222 220 217 215 213 212 212 213 212 211 209 209 209 209
246 155 182 108 242 221 232 233 241 241 238 218 273 268 275 294 306 305 305 303 305 302 310 295 268 246 235 230 227 226 224 223 220 218 217 216 215 215 216 216 217 218 217 215
185 150 174 270 273 320 246 238 247 248 251 266 270 279 304 305 316 315 311 307 306 287 294 294 279 264 251 238 233 228 226 226 224 221 220 220 220 219 220 221 221 223 224 226
224 170 181 220 210 210 232 241 257 262 268 283 290 304 300 306 310 307 308 316 319 307 272 287 288 274 261 249 239 233 228 228 228 226 223 223 223 223 223 225 226 226 228 230